STARLINK-3258 (50206 NORAD) Tracking and Keplerian Element Data

This shows tracking and keplerian element data for the satellite.

Feedback or suggestion? Click here.




ElementValue
Catalog50206
NameSTARLINK-3258
Epoch Orbit2499
Epoch Day140.91667824
Epoch Year2022
RAAN353.5559
Inclination53.2195
Eccentricity0.000195
Argument of Perigee48.6559
Mean Anonmoly164.4344
Mean Motion15.08815933
Decay Rate0.00026031
L11 50206U 21125BC 22140.91667824 .00026031 00000+0 16487-2 0 9995
L22 50206 53.2195 353.5559 0001950 48.6559 164.4344 15.08815933 24990

Live tracking and technical data element details for STARLINK-3258 (NORAD 50206). STARLINK-3258 can be tracked NOW for your location showing map with azimuth and elevation plus other details from your city location.

Track the satellite on the map from your city or location and see movement details for azimuth, elevation, latitude, longitude, range, height, and movement on the map or in text.







IsCatalogInMostPopularTable: catalog: 50206, numindb: 21
Update: records affected: 1



GetName: 50206 STARLINK-3258

Hit Count: updated at: Sun, 22 May 2022 04:09:16 GMT